sat.trackr.live / text

‹ back to catalog

SKY MUSTER 1 (NBN1A)

NORAD 40940 · 2015-054A

PAYLOAD ACTIVE UNKNOWN

§ Identity

Operator
Country
AUS
Launch date
2015-09-30
Launch site
FRGUI
Launch vehicle
Mass (kg)
RCS (m²)
51.58

Purposes: comms

External: N2YO · Heavens-Above · Gunter

§ Orbital elements

Epoch: 2026-09-19T11:51:27.756000Z

Period
1,436.09 min
Inclination
0.0124°
Eccentricity
0.0001754
Mean motion
1.00271949 rev/d
Perigee alt
35,779.2 km
Apogee alt
35,793.9 km
Semi-major
42,164.7 km
B*
0.0000e+0
RAAN
229.7436°
Arg perigee
296.1896°
Mean anomaly
150.5970°
Rev number
4,020

§ Raw data

SKY MUSTER 1 (NBN1A)1 40940U 15054A   26262.49407125 -.00000282  00000+0  00000+0 0  99932 40940   0.0124 229.7436 0001754 296.1896 150.5970  1.00271949 40203

JSON: /api/v1/satellites/40940 · /tle

For live sub-satellite position, see the globe view (requires WebGL).

§ Visibility from observer

Set your observer location to see the next 7 days of passes ≥ 10°. The values pass through the URL so the page stays shareable.

No JS? Fill the form by hand. The geolocation button needs JavaScript.